GAOFEN 9-02 (45625 NORAD) Tracking and Keplerian Element Data

This shows tracking and keplerian element data for the satellite.

Feedback or suggestion? Click here.




ElementValue
Catalog45625
NameGAOFEN 9-02
Epoch Orbit604
Epoch Day192.17940962
Epoch Year2020
RAAN336.5645
Inclination97.2912
Eccentricity0.0014348
Argument of Perigee122.1548
Mean Anonmoly50.4448
Mean Motion15.23630892
Decay Rate4.45E-06
L11 45625U 20034B 20192.17940962 .00000445 00000-0 21389-4 0 9993
L22 45625 97.2912 336.5645 0014348 122.1548 50.4448 15.23630892 6043

Live tracking and technical data element details for GAOFEN 9-02 (NORAD 45625). GAOFEN 9-02 can be tracked NOW for your location showing map with azimuth and elevation plus other details from your city location.

Track the satellite on the map from your city or location and see movement details for azimuth, elevation, latitude, longitude, range, height, and movement on the map or in text.







IsCatalogInMostPopularTable: catalog: 45625, numindb: 4
Update: records affected: 1



GetName: 45625 GAOFEN 9-02

Hit Count: updated at: Fri, 10 Jul 2020 16:30:33 GMT